This is the latest recevied weather packets stored in our database for station/object N7WGJ. If no packets are shown the sender has not sent any weather packets the latest 10 day(s).
| Time | Temp. | Humidity | Pressure | Rain* | Wind** | Luminosity | Snow |
|---|---|---|---|---|---|---|---|
| 1788545500 | 16.67° C | 82% | 1014.2 hPa | 0 mm | - | - | - |
| 1788544893 | 16.11° C | 88% | 1014 hPa | 0 mm | - | - | - |
| 1788544284 | 15° C | 91% | 1014 hPa | 0 mm | - | - | - |
| 1788543685 | 14.44° C | 90% | 1014.1 hPa | 0 mm | - | - | - |
| 1788543088 | 14.44° C | 92% | 1014.2 hPa | 0 mm | - | - | - |
| 1788542493 | 14.44° C | 93% | 1014.1 hPa | 0 mm | - | - | - |
| 1788541890 | 14.44° C | 96% | 1014.1 hPa | 0 mm | - | - | - |
| 1788541307 | 13.89° C | 97% | 1014.1 hPa | 0 mm | - | - | - |
| 1788540696 | 13.89° C | 97% | 1014.1 hPa | 0 mm | - | - | - |
| 1788540096 | 13.33° C | 97% | 1014 hPa | 0 mm | - | - | - |
| 1788539490 | 13.33° C | 98% | 1014.1 hPa | 0 mm | - | - | - |
| 1788538892 | 13.33° C | 98% | 1014.1 hPa | 0 mm | - | - | - |
| 1788538299 | 13.33° C | 98% | 1014 hPa | 0 mm | - | - | - |
| 1788537701 | 12.78° C | 98% | 1013.9 hPa | 0 mm | - | - | - |
| 1788537092 | 12.78° C | 98% | 1013.8 hPa | 0 mm | - | - | - |
| 1788536498 | 12.78° C | 98% | 1013.7 hPa | 0 mm | - | - | - |
| 1788535900 | 12.78° C | 98% | 1013.5 hPa | 0 mm | - | - | - |
| 1788535283 | 12.78° C | 98% | 1013.5 hPa | 0 mm | - | - | - |
| 1788534686 | 12.78° C | 98% | 1013.3 hPa | 0 mm | - | - | - |
| 1788534103 | 12.78° C | 98% | 1013.3 hPa | 0 mm | - | - | - |
| 1788533496 | 12.78° C | 98% | 1013.2 hPa | 0 mm | - | - | - |
| 1788532896 | 12.78° C | 98% | 1013.1 hPa | 0 mm | - | - | - |
| 1788532300 | 12.78° C | 98% | 1013 hPa | 0 mm | - | - | - |
| 1788531696 | 12.78° C | 98% | 1012.9 hPa | 0 mm | - | - | - |
| 1788531096 | 12.22° C | 97% | 1012.8 hPa | 0.25 mm | - | - | - |
* Rain latest hour (hover to see other rain measurements)
** Current wind speed in m/s (hover to see current wind gust speed)